TRITON-1

Last updated on Fri Dec 19 2025 00:03:50 GMT+0000 (Coordinated Universal Time)

1 39427U 13066M 25352.58857128 .00002284 00000+0 28355-3 0 9993 2 39427 97.8323 261.5659 0093468 102.2354 258.9345 14.80518595647357
UTC large
Height (km)
Speed (km/s)
/
Latitude / Longitude
Inclination (degrees)
Orbital Period (minutes)
Azimuth
Elevation
Range (km)
Doppler Factor

Next 0 passes for location: London (51.5072 / 0.1276)

Sorry there are no passes over London.